STARLINK-31417, 59216

Orbit data source: Space-Track

STARLINK-31417, 59216 is a payload satellite owned by SpaceX/Seattle (US) in LEO that was launched on Mon, 11 Mar 2024 UTC via an FALCON 9 launch vehicle from the Air Force Western Test Range (AFWTR). Payload-class satellites include a variety of spacecraft equipped with specific instruments for various scientific and technological missions. These include communications satellites like Starlink; space stations such as the ISS; scientific satellites like the Hubble; Earth observation satellites from companies like Planet Labs, Umbra, and HawkEye 360; GPS; miniature CubeSats for education and research; and military/defense satellites.

Loading next visibility...
Identifier
59216, 2024-046R
Orbit
LEO
Country
Flag of USUS
Related business
Manufacturer
SpaceX/Seattle
Mission
Operational Commercial Communications
Bus & Motor
STARLINK V2M, Unknown motor
Mass
730 kg wet, ~700 kg dry
Launch date (UTC)
2024-03-11 (2 years ago)
Launch vehicle
FALCON 9
Launch site
Air Force Western Test Range (AFWTR)
Object type
Payload
Rocket body
Debris
Shape & HBR
Box + 2 Pan, 17.7 m
Radar Cross Section
33.884 m², Large (>1 m²)

Expand to show TLE details & history
Last TLE update: 2 days ago

TLE from 2 days ago
0 STARLINK-31417
1 59216U 24046R   26171.35272642 -.00000844  00000-0 -16376-4 0  9992
2 59216  53.1625  38.7663 0001855  93.2396 266.8818 15.30182959128633
Epoch: 2026-06-20T08:27Z
TLE epoch observation values (Epoch: 2026-06-20T08:27:55.562Z)
Latitude
0.00005°
Longitude
3.21625°
Altitude
476.235 km
Speed
7.629 km/s
True Right ascension
02h 35m 03s
True Declination
0° 00' 00"
Sunlit
Object was in daylight at epoch
Visualization orbit readout
Latitude
Unknown
Longitude
Unknown
Altitude
Unknown
Speed
Unknown
Apparent Right ascension
Unknown
Apparent Declination
Unknown
Sunlit
N/A
Visualization observer readout
Local Sidereal Time
21:29:32
Azimuth
Unknown
Elevation
Unknown
Doppler factor
Unknown
Orbital elements
Apogee altitude
476.793 km
Perigee altitude
474.251 km
Semi-major axis
6,853.659 km
Eccentricity
0.00019
Inclination
53.1625°
RAAN
38.7663°
Arg. of periapsis
93.2396°
True anomaly
266.86058°
Mean anomaly
266.8818°
Eccentric anomaly
266.87119°
Mean motion
3.82525 °/min
Orbital period
94.11 mins
BSTAR
-0.000016376
Loading maneuver chart data...
Computing Atmospheric mass density...
Loading historical data...
Loading historical data...
Loading historical data...
Loading historical data...
Loading historical data...
Loading historical data...
Loading historical data...

Documentation

Showing up to 5 results
|